Погода в Сулуке

Россия / Хабаровский край     50°39′09″N   133°35′01″E
темп.,
°C
ветер,
м/с
пор.,
м/с
влажн.,
%
обл.,
%
осадки,
мм/ч
давл.,
гПа
погр.,
м
17 сентября, пт
пт1701:00+8юз3999100 3.3 1009809
04:00+6з239825 4.1 1010110
07:00+4зсз239760 0.1 1012138
10:00+8з25660 0.1 1012727
13:00+12з48426 0.0 10101736
16:00+12юз585444 0.0 10081782
19:00+10юз4127418 0.0 10071076
22:00+9зюз61492100 1.9 10071283
18 сентября, сб
сб1801:00+7з249727 1.1 1008128
04:00+5зсз3994100 1.2 1010732
07:00+1сз239840 0.1 101398
10:00+4сз368290 0.1 1015832
13:00+4зсз478078 0.1 10151020
16:00+6зсз486650 0.3 10151244
19:00+3сз267912 0.0 1016304
22:000з24938 0.1 1018112
19 сентября, вс
вс1901:00−1з11954 0.0 101913
04:00−1з23955 0.0 101963
07:00−2з11954 0.0 102017
10:00+6зсз511545 0.0 10181361
13:00+8зсз6104617 0.0 10171573
16:00+9зсз693932 0.0 10152109
19:00+5зсз410605 0.0 1017594
22:000зсз11875 0.0 102012
20 сентября, пн
пн2001:000з11927 0.0 102110
04:00−1зсз11934 0.0 102111
07:000сз11920 0.0 102110
10:00+8з27531 0.0 1019928
13:00+12з46410 0.0 10161337
16:00+12з464364 0.0 10151340
19:00+6зсз11768 0.0 101611
22:00+3с11855 0.0 101710
21 сентября, вт
вт2101:00+3ссв1187100 0.0 101710
04:00+2св1189100 0.0 101710
07:00+2св1186100 0.0 101710
10:00+9вюв1159100 0.0 1015255
13:00+12юв1146100 0.0 1013700
16:00+13юв2243100 0.0 1013815
19:00+7вюв1170100 0.0 101410
22:00+5в1174100 0.0 101612